Temp
5 4 4 5 5 4 4 5 5 6 6 6 6 6 6 6 6 7 7 7 7 7 7 7 6 6 6 6 6 6 6 6 6 6 7 7 7 7 7 7 7 8 8 8 8 8 8 8 7 7 7 6 6 5 5 4 4 4 4 4 3 3 3 3 2 2 2 2 2 2 2 2 2 2 2 2 2 1 1 1 1 1 1 1 2 2
4 4 4 4 4 4 4 4 5 5 5 5 5 5 5 5 5 6 6 6 6 6 6 6 6 6 6 6 6 6 6 6 6 6 7 7 7 7 7 7 7 8 8 8 7 7 7 7 7 6 6 5 5 5 4 4 4 4 4 3 3 3 3 2 2 2 2 2 2 2 2 2 2 2 1 1 1 1 1 1 1 1 1 1 2 2
4 3 3 4 4 4 3 3 4 5 5 5 5 5 4 5 5 5 5 5 5 5 5 5 5 5 5 5 5 6 6 6 6 6 6 7 7 7 7 7 7 7 7 7 7 7 6 6 6 5 5 5 4 4 4 4 4 3 3 3 3 3 3 2 2 2 2 2 2 2 2 2 1 1 1 1 1 1 1 1 1 1 1 1 2 2
3 3 3 3 3 3 3 3 3 4 4 4 4 4 4 4 4 4 4 4 4 4 5 5 5 5 5 5 5 6 6 6 6 6 6 6 6 7 7 7 7 7 6 6 6 6 6 5 5 5 5 4 4 4 4 3 3 3 3 3 3 2 2 2 2 2 1 1 2 2 1 1 1 1 0 0 0 0 0 0 0 1 1 1 1 2
3 3 3 3 3 3 2 3 3 3 3 4 4 4 4 4 4 4 4 4 4 4 4 4 5 5 5 5 5 6 6 6 6 6 6 6 6 6 6 6 6 6 6 6 5 5 5 5 5 4 4 4 4 3 3 3 3 3 3 2 2 2 2 2 2 2 2 2 2 1 1 1 1 0 -0 -0 -0 -0 0 0 0 0 1 1 1 1
3 3 3 3 2 2 2 2 2 2 3 3 3 3 3 3 3 3 3 4 4 4 4 4 5 5 5 5 5 5 5 5 5 5 6 6 6 6 6 6 6 5 5 5 5 5 4 4 4 4 3 3 3 3 3 3 3 3 2 2 2 2 2 2 2 2 2 2 2 1 1 1 0 -0 -1 -1 -0 -0 -0 -0 0 0 1 1 1 1
3 2 2 2 2 2 1 1 2 2 2 2 2 2 2 2 3 3 3 3 4 4 4 4 5 5 5 5 5 5 5 5 5 5 5 5 6 6 5 5 5 5 5 5 4 4 4 3 3 3 3 3 3 3 3 3 3 3 2 2 2 2 2 2 2 2 2 2 1 1 0 -0 -1 -1 -1 -1 -1 -1 -0 -0 -0 0 0 1 1 1
2 2 2 2 1 1 1 1 1 1 1 2 2 2 2 2 2 3 3 3 3 4 4 4 4 4 4 4 4 4 4 5 5 5 5 5 5 5 5 5 5 5 4 4 3 3 3 3 3 3 3 3 3 3 3 3 3 3 3 3 3 3 3 2 2 2 2 1 1 -0 -1 -1 -1 -1 -1 -1 -1 -1 -1 -1 -0 -0 0 0 0 0
2 1 1 1 1 0 0 -0 0 1 1 2 2 2 2 2 2 2 3 3 3 3 4 4 4 4 4 4 4 4 4 4 4 4 5 5 5 5 5 5 4 4 3 3 2 2 2 2 3 3 3 3 3 3 3 3 3 3 3 3 3 3 2 2 2 2 1 0 -1 -1 -1 -1 -1 -1 -1 -1 -1 -1 -1 -1 -1 -1 -0 -0 -0 0
2 1 1 1 1 1 0 -0 -0 0 1 2 2 2 2 2 2 2 2 2 3 3 3 3 3 3 3 3 4 4 4 4 4 4 4 4 4 4 4 3 3 3 2 2 2 2 3 3 3 3 3 3 2 2 2 2 2 2 2 2 2 2 2 2 1 0 -0 -1 -1 -1 -1 -1 -1 -1 -1 -1 -1 -1 -1 -1 -1 -1 -1 -1 -0 -0
1 1 1 0 1 1 0 0 0 0 1 1 1 2 2 2 2 2 2 2 2 2 2 2 2 2 2 2 3 3 3 3 3 3 3 4 3 3 3 3 3 2 2 3 3 3 3 3 3 3 2 2 2 2 2 2 2 2 2 2 2 1 1 1 -0 -1 -1 -1 -1 -1 -1 -1 -1 -1 -1 -1 -1 -1 -1 -1 -1 -1 -1 -1 -1 -1
1 1 1 0 0 0 0 0 0 0 1 1 1 1 1 2 2 2 2 1 2 2 2 2 2 2 2 2 3 3 3 3 3 3 3 3 3 3 3 3 3 3 3 3 3 3 2 2 2 2 2 2 2 2 2 1 1 1 1 1 1 0 -0 -1 -1 -1 -1 -1 -1 -1 -1 -1 -1 -1 -1 -1 -1 -1 -1 -1 -1 -1 -1 -1 -1 -1
1 1 1 0 0 -0 -0 -0 -0 -0 0 0 0 1 1 1 2 2 2 2 2 2 2 2 2 2 2 2 2 2 2 2 2 2 3 2 2 2 2 2 2 2 2 2 2 2 2 2 2 2 1 1 1 1 1 0 0 0 0 0 0 -0 -1 -1 -2 -2 -1 -1 -1 -1 -1 -1 -1 -1 -1 -1 -1 -1 -1 -1 -1 -1 -1 -1 -1 -1
1 1 1 0 -0 -0 -1 -1 -1 -1 -0 0 1 1 1 1 2 2 2 2 2 2 2 2 2 2 2 2 2 2 2 2 2 2 2 2 2 2 2 2 2 2 2 2 2 2 2 2 1 1 1 1 0 0 -0 -0 -0 -0 -0 -0 -0 -1 -1 -1 -2 -2 -2 -2 -1 -1 -1 -1 -1 -2 -2 -2 -2 -2 -1 -1 -1 -1 -1 -1 -1 -1
1 1 1 1 0 -0 -0 -0 -0 -0 0 0 1 1 2 2 2 2 2 2 2 2 2 2 1 1 1 2 2 1 1 1 2 2 2 2 1 1 1 1 2 2 2 2 2 2 1 1 1 1 1 0 0 -0 -0 -0 -0 -0 -0 -0 -0 -1 -1 -1 -2 -2 -2 -2 -2 -2 -2 -2 -2 -2 -2 -2 -2 -2 -2 -2 -2 -2 -2 -2 -2 -1
2 1 1 1 0 0 -0 -0 0 0 1 1 1 1 1 2 2 2 2 2 2 2 2 1 1 1 1 1 1 1 1 1 1 2 2 2 1 1 1 1 1 1 1 1 1 1 1 1 0 0 0 -0 -0 -0 -1 -0 -0 -0 -0 -0 -1 -1 -1 -1 -1 -2 -2 -2 -2 -2 -2 -2 -2 -2 -2 -2 -2 -2 -2 -2 -2 -2 -2 -2 -2 -2
2 2 2 1 1 1 0 1 1 1 1 1 1 1 2 2 2 2 2 2 2 2 1 1 1 0 0 1 1 1 1 1 1 1 2 2 1 1 1 1 1 1 1 1 1 1 1 1 0 0 -0 -0 -0 -1 -1 -1 -0 -0 -0 -1 -1 -1 -1 -1 -1 -2 -2 -2 -2 -2 -2 -2 -2 -2 -2 -2 -2 -2 -2 -2 -2 -2 -2 -2 -2 -2
2 2 2 1 1 1 1 1 1 1 1 1 1 1 2 2 2 2 2 2 2 2 2 2 2 1 0 0 0 1 1 1 1 1 1 2 1 1 1 1 1 1 1 1 1 1 1 0 0 -0 -0 -0 -0 -1 -1 -1 -1 -0 -1 -1 -1 -1 -1 -1 -1 -1 -2 -2 -2 -2 -2 -2 -2 -2 -2 -2 -2 -2 -2 -2 -2 -2 -2 -2 -2 -2
2 2 2 2 1 1 1 1 1 1 1 1 1 1 1 1 1 2 2 2 2 2 2 2 2 2 1 1 0 0 1 1 1 1 1 2 1 1 0 1 1 1 1 1 1 0 0 -0 -0 -0 -0 -1 -1 -1 -1 -1 -1 -1 -1 -1 -1 -1 -1 -1 -1 -1 -1 -2 -2 -2 -2 -2 -2 -2 -2 -2 -2 -2 -2 -2 -2 -2 -2 -2 -2 -2
3 3 2 2 2 1 1 1 1 1 1 1 1 1 1 1 1 1 1 1 1 2 2 2 2 1 1 0 -0 0 0 1 1 1 1 1 1 1 0 0 0 0 0 1 0 0 0 -0 -0 -1 -1 -1 -1 -1 -1 -1 -1 -1 -1 -1 -1 -1 -1 -1 -1 -1 -1 -1 -1 -1 -1 -2 -2 -2 -2 -2 -2 -2 -2 -2 -2 -2 -2 -2 -2 -2
3 2 2 2 2 1 1 1 1 1 1 1 1 1 1 1 1 1 1 1 1 1 1 1 1 1 0 -0 -0 -0 0 0 1 1 1 1 1 0 -0 0 0 0 0 0 0 0 -0 -0 -1 -1 -1 -1 -1 -1 -1 -1 -1 -1 -1 -1 -1 -1 -1 -1 -1 -1 -1 -1 -1 -1 -1 -1 -1 -1 -2 -2 -2 -2 -2 -2 -2 -2 -2 -1 -1 -1
3 2 2 2 2 1 1 1 1 1 1 2 2 2 1 1 1 1 1 1 1 1 1 1 1 1 0 0 0 0 0 0 1 1 1 1 1 0 -0 -0 -0 -0 0 0 0 -0 -0 -1 -1 -1 -1 -1 -1 -1 -1 -1 -0 -1 -1 -1 -1 -1 -1 -1 -1 -1 -1 -1 -1 -1 -1 -1 -1 -1 -1 -1 -1 -1 -1 -1 -1 -1 -1 -1 -1 -1
2 2 2 2 2 2 1 1 1 1 1 1 2 2 2 1 1 1 0 0 0 0 0 0 0 0 0 0 -0 -0 0 0 0 0 1 0 0 -0 -0 -0 -0 -0 -0 -0 -0 -0 -0 -0 -0 -0 -0 -0 0 -0 -0 -0 -1 -1 -1 -1 -1 -1 -1 -1 -1 -1 -1 -1 -1 -1 -1 -1 -1 -1 -1 -1 -1 -1 -1 -1 -1 -1 -1 -1 -1 -1
2 2 2 2 2 2 1 1 1 1 1 1 1 1 1 1 1 1 1 1 0 0 0 0 -0 -0 -0 -0 -1 -1 -0 -0 -0 -0 -0 -0 -0 -0 -1 -1 -1 -1 -1 -0 -0 -1 -0 -0 0 0 0 1 1 0 -0 -1 -1 -1 -1 -1 -1 -1 -1 -1 -1 -1 -1 -1 -1 -1 -1 -1 -1 -1 -1 -1 -1 -1 -1 -1 -1 -1 -1 -1 -1 -1
2 2 2 2 2 1 1 1 1 1 1 1 1 1 1 1 1 1 1 0 0 0 -0 -0 -0 -0 -1 -1 -1 -1 -1 -1 -1 -1 -1 -1 -1 -1 -1 -1 -1 -1 -1 -1 -0 -0 -0 0 1 1 1 0 0 -0 -1 -1 -1 -1 -1 -1 -1 -1 -1 -1 -1 -1 -1 -1 -1 -1 -1 -1 -1 -1 -1 -1 -1 -1 -1 -1 -1 -1 -1 -1 -1 -1
2 2 1 1 1 1 1 1 1 1 1 1 1 1 1 1 1 0 0 -0 -0 -0 -0 -0 -0 -1 -1 -1 -1 -1 -1 -1 -1 -1 -1 -1 -1 -1 -1 -2 -2 -2 -2 -1 -0 0 0 1 1 0 0 -0 -1 -1 -1 -1 -1 -1 -1 -1 -1 -1 -1 -1 -1 -1 -1 -1 -1 -1 -1 -1 -1 -1 -1 -1 -1 -1 -1 -1 -1 -1 -1 -1 -1 -1
1 1 1 0 0 0 0 0 0 0 0 0 0 0 0 0 0 0 -0 -0 -0 -0 -0 -0 -1 -1 -1 -1 -1 -1 -1 -1 -1 -1 -1 -1 -1 -1 -2 -2 -2 -2 -2 -1 0 0 0 1 1 0 -0 -1 -1 -1 -1 -0 -0 -0 -1 -1 -1 -1 -1 -1 -1 -1 -1 -1 -1 -1 -1 -1 -1 -1 -1 -1 -1 -1 -1 -1 -1 -1 -1 -1 -1 -1
-0 -0 -0 -0 -0 -1 -1 -1 -1 -0 -0 -0 -0 -0 -0 -0 0 0 -0 -1 -0 -0 -0 -0 -0 -1 -1 -1 -1 -1 -1 -2 -2 -2 -2 -2 -2 -2 -2 -2 -2 -2 -2 -1 -0 1 0 0 0 -0 -1 -1 -1 -0 -0 -0 -0 -1 -1 -1 -1 -1 -1 -1 -1 -1 -1 -1 -1 -1 -1 -1 -1 -1 -1 -1 -1 -1 -1 -1 -1 -1 -1 -1 -1 -1
-1 -1 -1 -1 -1 -1 -1 -1 -1 -1 -1 -1 -1 -1 -1 -0 -0 -0 -0 -0 -1 -1 -1 -1 -1 -1 -1 -1 -1 -1 -1 -2 -2 -2 -2 -2 -2 -2 -2 -2 -2 -3 -3 -3 -1 0 0 -0 -0 -1 -1 -0 -0 -0 -0 -0 -1 -1 -1 -1 -1 -1 -1 -1 -1 -1 -1 -1 -1 -1 -1 -1 -1 -1 -1 -1 -1 -1 -1 -1 -1 -1 -1 -1 -1 -1
-1 -1 -1 -1 -1 -1 -1 -1 -1 -1 -1 -1 -1 -1 -1 -1 -1 -0 -0 -1 -1 -1 -1 -1 -1 -1 -1 -1 -1 -2 -2 -2 -2 -2 -2 -2 -2 -2 -2 -3 -3 -3 -3 -3 -3 -2 -1 -0 -1 -1 -1 -0 -0 -0 -0 -1 -1 -1 -1 -1 -1 -1 -1 -1 -1 -1 -2 -2 -2 -2 -2 -1 -1 -1 -1 -1 -1 -1 -1 -1 -1 -1 -1 -1 -1 -1
-1 -1 -1 -1 -1 -1 -1 -1 -1 -1 -1 -1 -1 -1 -1 -1 -1 -1 -1 -1 -1 -1 -1 -1 -1 -1 -2 -2 -2 -2 -3 -2 -2 -2 -3 -2 -2 -3 -3 -3 -3 -3 -3 -4 -4 -4 -3 -2 -1 -0 -0 -0 -0 -0 -1 -1 -1 -1 -2 -2 -2 -1 -1 -1 -2 -2 -2 -2 -2 -2 -2 -2 -2 -1 -1 -1 -1 -1 -1 -1 -1 -1 -1 -1 -1 -2
-1 -1 -1 -1 -1 -1 -1 -1 -1 -1 -1 -1 -1 -1 -1 -1 -1 -1 -1 -1 -2 -2 -2 -2 -2 -2 -2 -2 -2 -2 -2 -2 -2 -3 -3 -3 -3 -3 -3 -3 -3 -3 -4 -4 -4 -4 -5 -4 -2 -1 -1 -1 -1 -1 -1 -1 -2 -2 -2 -2 -2 -2 -2 -2 -2 -2 -2 -2 -2 -2 -2 -2 -2 -2 -2 -2 -1 -1 -1 -1 -1 -1 -1 -1 -2 -2
-2 -2 -2 -2 -2 -2 -2 -2 -2 -1 -1 -1 -2 -1 -1 -1 -1 -1 -1 -2 -2 -2 -2 -2 -2 -2 -2 -2 -2 -2 -2 -2 -3 -3 -3 -3 -3 -3 -3 -3 -3 -4 -4 -4 -4 -4 -4 -4 -3 -3 -3 -3 -3 -2 -2 -2 -2 -2 -2 -2 -2 -2 -2 -2 -2 -2 -2 -2 -2 -2 -2 -2 -2 -2 -2 -2 -2 -2 -1 -1 -1 -1 -1 -2 -2 -2
-2 -2 -2 -2 -2 -2 -2 -2 -2 -2 -2 -2 -2 -2 -2 -2 -2 -2 -2 -2 -2 -2 -2 -2 -2 -3 -3 -3 -2 -2 -2 -3 -3 -3 -3 -3 -3 -3 -3 -4 -4 -4 -4 -4 -4 -4 -4 -4 -4 -4 -3 -3 -3 -3 -2 -2 -2 -2 -2 -2 -2 -2 -2 -2 -2 -2 -2 -2 -2 -2 -2 -2 -2 -2 -2 -2 -2 -2 -2 -2 -1 -2 -2 -2 -2 -2
-3 -3 -3 -3 -3 -3 -3 -3 -3 -3 -3 -3 -3 -3 -2 -2 -2 -2 -2 -2 -2 -2 -2 -2 -2 -3 -3 -3 -3 -3 -3 -3 -3 -3 -3 -3 -3 -3 -4 -4 -4 -4 -4 -4 -4 -4 -4 -4 -4 -4 -4 -4 -3 -3 -2 -2 -2 -2 -2 -2 -2 -2 -2 -2 -2 -2 -2 -2 -2 -2 -2 -2 -2 -2 -2 -2 -2 -2 -2 -2 -2 -2 -2 -2 -2 -2
-3 -3 -3 -3 -3 -3 -3 -3 -3 -3 -3 -3 -3 -3 -3 -3 -3 -3 -3 -3 -3 -3 -3 -3 -3 -3 -3 -3 -3 -3 -3 -3 -3 -3 -3 -3 -3 -4 -4 -4 -4 -4 -4 -4 -4 -4 -4 -4 -4 -4 -4 -4 -3 -3 -2 -3 -3 -3 -3 -3 -3 -3 -2 -2 -2 -2 -2 -2 -2 -2 -2 -2 -2 -2 -2 -2 -2 -2 -2 -2 -2 -2 -2 -2 -3 -3
-3 -3 -3 -3 -3 -3 -3 -4 -4 -4 -4 -4 -3 -3 -3 -3 -3 -3 -3 -3 -3 -3 -3 -3 -3 -3 -3 -3 -3 -3 -3 -3 -3 -3 -3 -3 -4 -4 -4 -4 -5 -4 -4 -4 -4 -4 -4 -4 -4 -4 -4 -4 -4 -3 -3 -3 -3 -3 -3 -3 -3 -3 -3 -2 -2 -2 -2 -2 -2 -2 -2 -2 -2 -2 -2 -2 -2 -2 -2 -2 -2 -2 -3 -3 -3 -3
-3 -3 -3 -3 -3 -3 -3 -4 -4 -4 -4 -4 -4 -4 -4 -4 -4 -4 -3 -3 -3 -3 -3 -3 -3 -3 -3 -3 -3 -3 -3 -3 -3 -3 -3 -3 -3 -4 -4 -4 -4 -5 -5 -5 -5 -4 -4 -4 -4 -4 -4 -4 -4 -4 -4 -4 -4 -3 -3 -3 -3 -3 -3 -3 -2 -2 -2 -2 -2 -2 -2 -2 -2 -2 -2 -2 -2 -2 -2 -2 -2 -3 -3 -3 -3 -3
-3 -3 -3 -3 -3 -3 -3 -4 -4 -4 -4 -4 -4 -4 -4 -4 -4 -4 -4 -3 -3 -3 -3 -3 -3 -3 -3 -3 -3 -3 -3 -3 -3 -3 -3 -3 -3 -3 -4 -4 -4 -4 -4 -4 -4 -4 -4 -4 -4 -4 -4 -4 -4 -4 -4 -4 -3 -3 -3 -3 -3 -3 -3 -3 -3 -3 -2 -2 -2 -2 -2 -2 -2 -2 -2 -2 -2 -2 -2 -3 -3 -3 -3 -3 -3 -3
-3 -3 -3 -3 -3 -4 -4 -4 -4 -4 -4 -4 -4 -4 -4 -4 -4 -4 -4 -3 -3 -3 -3 -3 -3 -3 -3 -3 -3 -3 -3 -3 -3 -3 -3 -3 -3 -3 -3 -3 -3 -4 -4 -4 -4 -4 -4 -4 -4 -4 -4 -4 -4 -4 -3 -3 -3 -3 -3 -3 -3 -3 -3 -3 -3 -3 -3 -2 -2 -2 -2 -2 -2 -2 -2 -2 -2 -2 -3 -3 -3 -3 -3 -3 -4 -4
-3 -3 -4 -4 -4 -4 -4 -4 -4 -4 -4 -4 -4 -4 -4 -4 -4 -4 -4 -3 -3 -3 -3 -3 -3 -3 -3 -3 -3 -3 -3 -3 -3 -3 -3 -3 -3 -3 -3 -3 -3 -4 -4 -4 -4 -4 -4 -4 -4 -4 -4 -4 -4 -4 -3 -3 -3 -3 -3 -3 -4 -4 -4 -4 -3 -3 -3 -3 -2 -2 -2 -2 -2 -2 -2 -2 -3 -3 -3 -3 -3 -3 -3 -4 -4 -4
-4 -4 -4 -4 -4 -4 -4 -4 -4 -4 -4 -4 -4 -4 -4 -4 -4 -4 -4 -4 -4 -4 -4 -4 -3 -3 -3 -3 -3 -3 -3 -3 -3 -3 -3 -3 -3 -3 -3 -3 -3 -4 -4 -4 -4 -4 -4 -4 -4 -4 -4 -4 -4 -4 -4 -4 -4 -4 -4 -4 -4 -4 -4 -4 -3 -3 -3 -3 -3 -2 -2 -2 -2 -2 -2 -3 -3 -3 -3 -3 -4 -4 -4 -4 -4 -4
-4 -4 -4 -4 -4 -4 -4 -4 -4 -4 -4 -4 -4 -4 -4 -4 -4 -4 -4 -4 -4 -4 -4 -4 -4 -4 -3 -3 -3 -3 -3 -3 -3 -3 -3 -3 -3 -3 -3 -3 -3 -4 -4 -4 -4 -4 -4 -4 -4 -4 -4 -4 -4 -4 -4 -4 -4 -4 -4 -4 -4 -4 -4 -4 -3 -3 -3 -3 -3 -3 -2 -2 -3 -3 -3 -3 -3 -3 -4 -4 -4 -4 -4 -4 -4 -4
-4 -4 -4 -4 -4 -4 -4 -4 -4 -4 -4 -4 -4 -4 -4 -4 -4 -4 -4 -4 -4 -4 -4 -4 -4 -4 -4 -3 -3 -3 -3 -3 -3 -3 -3 -3 -3 -3 -3 -3 -4 -4 -4 -4 -4 -4 -4 -4 -4 -4 -4 -4 -4 -4 -4 -4 -4 -4 -4 -4 -4 -4 -4 -4 -3 -3 -3 -3 -3 -3 -3 -3 -3 -3 -3 -3 -4 -4 -4 -4 -4 -4 -4 -4 -4 -4
-5 -5 -5 -5 -5 -4 -4 -4 -4 -4 -4 -4 -4 -4 -4 -4 -4 -4 -4 -4 -4 -4 -4 -4 -4 -4 -4 -4 -4 -4 -3 -3 -3 -3 -3 -3 -3 -3 -3 -3 -4 -4 -4 -4 -4 -4 -4 -4 -4 -4 -4 -4 -4 -4 -4 -4 -4 -4 -4 -4 -4 -4 -4 -4 -3 -3 -3 -3 -3 -3 -3 -3 -3 -3 -4 -4 -4 -4 -4 -4 -4 -4 -4 -4 -4 -4
-5 -5 -5 -5 -5 -5 -5 -5 -5 -4 -4 -4 -4 -4 -4 -4 -4 -4 -4 -4 -4 -4 -4 -4 -4 -4 -4 -4 -4 -4 -4 -4 -4 -3 -3 -3 -3 -3 -4 -4 -4 -4 -4 -4 -4 -4 -4 -4 -4 -4 -4 -4 -4 -4 -4 -4 -4 -4 -4 -4 -4 -4 -4 -3 -3 -3 -3 -3 -3 -3 -3 -3 -4 -4 -4 -4 -4 -5 -5 -5 -5 -4 -4 -4 -4 -4
-6 -6 -5 -5 -5 -5 -5 -5 -5 -5 -4 -4 -4 -4 -4 -4 -4 -4 -5 -5 -5 -5 -5 -5 -5 -4 -4 -4 -4 -4 -4 -4 -4 -4 -4 -4 -4 -4 -4 -4 -4 -4 -4 -4 -4 -4 -4 -4 -4 -5 -5 -5 -4 -4 -4 -4 -4 -4 -4 -4 -4 -4 -4 -4 -3 -3 -3 -3 -3 -3 -4 -4 -4 -4 -5 -5 -5 -5 -5 -5 -4 -4 -4 -4 -4 -4
-6 -6 -6 -6 -5 -5 -5 -5 -5 -5 -5 -5 -4 -4 -4 -5 -5 -5 -5 -5 -5 -5 -5 -5 -5 -5 -5 -5 -4 -4 -4 -4 -4 -4 -4 -4 -4 -4 -4 -4 -4 -5 -5 -5 -5 -5 -5 -5 -4 -4 -4 -4 -4 -4 -4 -4 -4 -4 -4 -4 -4 -4 -4 -3 -3 -3 -3 -3 -3 -4 -4 -4 -4 -5 -5 -5 -5 -5 -5 -4 -4 -4 -4 -4 -4 -4
-7 -7 -6 -6 -6 -6 -6 -5 -5 -5 -5 -5 -5 -5 -5 -5 -5 -5 -5 -5 -5 -5 -5 -5 -5 -5 -5 -5 -5 -5 -5 -5 -5 -4 -4 -4 -4 -5 -5 -5 -5 -5 -5 -5 -5 -5 -5 -5 -4 -4 -4 -4 -4 -4 -4 -4 -4 -3 -3 -3 -3 -3 -3 -4 -4 -4 -4 -4 -4 -4 -4 -5 -5 -5 -5 -5 -5 -5 -4 -4 -4 -4 -4 -4 -4 -4
-7 -7 -7 -7 -6 -6 -6 -6 -6 -6 -5 -5 -5 -5 -5 -5 -5 -5 -5 -5 -5 -5 -5 -5 -5 -5 -5 -5 -5 -5 -5 -5 -5 -5 -4 -4 -5 -5 -5 -5 -5 -5 -5 -5 -5 -5 -5 -4 -4 -4 -4 -4 -3 -3 -3 -3 -3 -3 -3 -3 -3 -4 -4 -4 -4 -4 -4 -4 -4 -5 -5 -5 -5 -5 -5 -5 -5 -4 -4 -4 -4 -4 -4 -4 -4 -5
-8 -8 -7 -7 -7 -7 -7 -7 -6 -6 -6 -6 -6 -6 -5 -5 -6 -6 -6 -6 -5 -5 -5 -5 -5 -5 -5 -5 -5 -5 -5 -5 -5 -5 -5 -5 -5 -5 -5 -5 -5 -5 -5 -5 -5 -5 -5 -4 -4 -4 -4 -4 -3 -3 -3 -3 -3 -3 -3 -4 -4 -4 -4 -4 -4 -5 -5 -5 -5 -5 -5 -5 -5 -5 -5 -5 -5 -4 -4 -4 -4 -4 -4 -4 -5 -5
Height
780 782 783 784 785 786 787 787 787 786 786 787 789 791 793 795 797 797 798 799 800 801 802 802 803 803 804 804 805 806 807 807 808 809 810 811 811 811 811 812 812 812 812 813 813 813 813 813 813 813 813 813 813 814 814 814 813 813 812 812 812 812 811 811 811 811 811 810 810 810 809 809 808 807 807 806 806 806 805 805 805 804 804 803 803 803
780 782 783 784 785 785 786 786 786 785 785 787 789 791 793 795 796 797 797 798 800 801 801 802 802 803 803 804 805 806 807 807 808 809 809 810 810 810 811 811 811 811 812 812 812 812 812 812 812 812 812 812 812 812 812 812 812 812 811 811 810 810 810 809 809 809 809 809 808 808 807 807 807 806 805 805 805 804 804 804 803 803 803 802 802 802
780 782 783 784 784 785 785 785 785 785 786 787 789 791 793 794 795 796 797 798 799 800 801 801 802 802 803 804 805 806 806 807 807 808 808 809 809 809 810 810 810 810 810 810 810 810 810 811 811 811 811 811 811 811 811 811 810 810 809 809 808 808 808 808 808 808 807 807 807 807 806 806 805 805 804 804 803 803 803 803 802 802 802 802 801 801
779 781 782 783 784 784 783 783 784 785 786 788 790 792 793 794 795 796 797 797 798 799 800 801 802 802 803 804 804 805 806 806 807 807 807 808 808 808 809 809 809 809 809 809 809 809 809 809 810 810 810 810 810 810 809 809 809 808 808 807 807 807 807 807 807 807 806 806 806 805 805 804 804 803 803 802 802 802 802 802 801 801 801 800 800 800
779 780 781 782 782 782 782 782 783 785 787 789 791 792 793 794 795 796 796 797 798 799 799 800 801 802 802 803 804 804 805 806 806 807 807 807 807 807 808 808 808 808 808 808 808 808 808 808 809 808 808 808 808 808 808 807 807 807 806 806 806 806 805 805 805 805 805 805 804 804 803 803 802 802 802 801 801 801 801 801 800 800 800 799 799 798
779 780 780 780 781 782 782 783 784 786 787 789 791 792 793 794 795 795 796 797 797 798 799 800 800 801 802 802 803 804 804 805 805 806 806 806 807 807 807 807 807 807 807 807 807 807 807 807 807 807 807 807 807 806 806 806 805 805 805 804 804 804 804 804 804 804 804 804 803 803 802 802 802 801 801 800 800 800 800 799 799 799 798 798 797 797
778 779 780 780 781 782 783 784 785 786 787 788 790 791 792 793 794 795 796 796 797 797 798 799 799 800 801 802 802 803 804 804 805 805 805 806 806 806 806 806 806 806 806 806 806 807 807 806 806 806 806 805 805 805 804 804 804 804 803 803 803 803 803 803 803 803 803 803 802 802 801 801 800 800 800 800 800 799 799 798 798 798 797 797 796 796
777 779 780 780 782 783 784 785 786 787 787 788 789 791 792 793 794 794 795 795 796 796 797 797 798 799 800 801 802 803 803 804 804 805 805 805 805 805 805 805 805 805 805 805 805 805 805 805 805 805 804 804 803 803 803 803 802 802 802 802 802 803 803 803 802 802 802 802 801 801 800 800 800 800 800 799 799 798 797 797 797 797 796 796 795 794
776 778 779 781 782 783 784 786 786 787 787 788 789 790 791 792 793 793 794 794 795 795 796 797 797 798 800 801 802 802 803 803 804 804 804 804 804 803 803 803 803 803 804 804 804 804 804 804 803 803 803 803 802 802 802 802 802 802 802 802 802 802 802 802 802 802 801 801 801 800 800 800 800 799 799 798 798 797 797 796 796 795 795 794 793 793
776 777 779 781 782 783 784 785 786 787 788 788 789 790 790 791 791 792 793 793 794 795 795 796 797 798 800 801 802 802 802 803 803 803 803 803 803 802 802 802 802 802 803 803 803 803 803 803 802 802 802 802 802 801 801 801 801 801 801 801 801 801 801 801 801 801 800 800 800 800 799 799 799 798 798 797 797 796 796 795 794 794 793 793 792 792
777 778 779 781 782 783 784 785 786 787 787 788 789 790 790 790 790 791 792 792 793 795 796 797 798 799 800 801 801 802 802 802 802 802 802 802 802 802 802 802 802 802 802 802 802 802 802 802 802 802 801 801 801 800 800 800 800 800 800 800 800 800 800 800 800 800 800 799 799 799 799 799 798 797 797 796 796 795 794 794 793 792 792 792 791 791
777 778 780 781 782 783 784 785 786 787 788 788 789 789 790 790 790 790 791 792 793 795 796 797 798 799 800 800 801 801 801 802 802 802 802 801 801 801 801 801 801 801 801 801 801 801 801 801 801 801 800 800 800 800 799 799 799 799 800 800 800 800 799 799 799 799 799 799 799 798 798 798 797 797 796 795 794 794 793 793 792 792 791 791 791 790
776 778 779 781 782 783 784 785 786 787 787 788 788 788 788 789 790 790 791 792 793 794 796 797 798 799 799 800 800 800 801 801 801 801 801 801 800 800 800 800 800 800 800 800 800 800 800 800 800 800 799 799 799 799 799 799 799 799 799 799 799 799 799 799 799 799 798 798 798 797 797 797 796 795 795 794 793 793 792 792 791 791 790 790 790 789
776 777 779 781 782 783 783 784 785 786 787 787 787 787 787 788 789 790 791 792 793 795 796 797 797 798 798 799 799 800 800 801 801 801 800 800 800 799 799 799 799 799 799 799 799 799 799 799 799 799 799 799 799 799 799 799 799 799 799 799 799 798 798 798 798 798 797 797 797 797 796 796 795 794 793 793 792 792 791 791 790 790 789 789 788 788
774 776 777 779 781 782 783 784 785 786 786 787 787 787 788 789 789 790 791 792 793 794 795 796 797 797 797 798 799 799 800 800 800 800 799 799 799 798 798 798 798 798 798 798 798 798 798 798 798 798 798 798 798 798 798 798 798 798 798 798 798 798 798 798 797 797 797 796 796 795 795 794 794 793 792 792 791 791 790 790 789 789 788 788 787 787
772 774 776 777 779 781 782 783 784 786 786 787 787 788 788 789 789 790 791 792 792 793 794 795 796 797 797 797 798 798 799 799 799 799 798 798 798 797 797 797 797 797 797 797 797 797 797 797 798 798 798 798 798 798 798 798 798 798 798 798 798 797 797 797 797 796 796 795 795 794 794 793 792 792 791 791 790 790 789 789 788 788 787 787 787 786
772 773 775 777 778 780 781 782 784 785 786 787 787 787 788 788 789 790 790 791 792 792 793 794 795 796 797 797 798 798 798 798 798 797 797 797 797 797 797 797 797 797 797 797 797 797 797 797 797 797 798 798 798 798 798 798 798 798 797 797 797 797 797 796 796 795 795 794 794 793 793 792 792 791 791 790 789 789 788 788 787 787 787 786 785 785
772 774 775 776 778 779 781 782 783 784 785 786 787 787 788 788 789 790 790 791 791 792 792 793 793 794 796 797 797 797 797 797 797 796 796 796 796 795 796 796 796 796 796 797 797 797 797 797 797 797 797 797 798 798 798 797 797 797 797 797 797 796 796 795 795 794 794 793 793 792 792 791 791 790 790 789 789 788 787 787 787 786 786 785 784 784
773 774 775 777 778 779 781 782 783 783 784 785 786 787 787 788 789 789 790 790 790 791 792 792 793 793 794 795 795 796 796 796 796 795 795 795 794 795 795 795 795 796 796 796 797 797 797 797 797 797 797 797 797 797 797 797 797 797 797 796 796 796 795 795 794 793 793 792 792 792 791 791 790 789 789 788 788 787 787 786 786 785 785 784 783 782
773 775 776 777 778 779 781 782 782 783 784 784 785 786 787 788 788 789 789 789 790 790 791 792 792 793 793 794 794 794 795 795 795 794 794 794 794 794 794 795 795 795 796 796 796 797 797 797 797 797 797 797 797 797 796 796 796 796 796 796 795 795 794 794 793 793 792 792 791 791 790 790 789 789 788 787 787 787 786 786 785 784 784 783 782 782
772 774 776 777 777 779 780 781 782 783 784 784 785 786 787 787 788 788 788 789 789 790 790 791 792 792 793 793 793 794 794 794 794 793 793 793 793 794 794 795 795 795 795 796 796 796 796 796 796 796 796 796 796 796 796 796 795 795 795 795 794 794 793 793 792 792 792 791 791 790 789 789 788 788 787 787 787 786 785 785 784 784 783 782 781 780
772 774 776 777 778 779 780 781 782 783 784 785 786 786 787 787 787 787 788 788 788 789 790 790 791 791 792 792 792 793 793 793 792 792 792 792 793 794 794 794 795 795 795 795 796 796 795 795 795 795 795 794 794 794 794 795 794 794 794 794 793 793 792 792 792 791 791 790 790 789 789 788 787 787 787 786 786 785 785 784 783 783 782 781 780 779
772 773 775 777 778 779 780 781 782 784 785 785 786 786 787 787 787 787 787 787 787 788 788 789 790 791 791 792 792 792 792 792 792 792 792 792 793 793 794 794 794 794 795 795 795 795 794 794 794 793 793 793 793 793 793 793 793 793 793 793 792 792 792 791 791 790 790 789 789 788 788 787 787 786 786 786 785 784 784 783 782 782 781 780 779 778
772 774 775 777 778 779 780 782 783 784 785 786 786 787 787 787 787 787 787 787 787 787 788 789 789 790 791 791 791 791 792 792 792 792 792 792 793 793 793 794 794 794 794 794 794 793 793 792 792 792 792 792 792 792 792 792 792 792 792 792 792 791 791 790 790 789 789 788 788 787 787 787 786 786 785 785 784 784 783 782 782 781 780 778 777 776
773 774 776 777 778 779 781 782 783 784 785 786 787 787 787 787 787 787 787 787 787 787 787 788 789 789 790 790 791 791 791 791 791 792 792 792 792 793 793 793 793 793 793 793 793 792 792 792 792 792 792 792 792 792 792 792 792 792 792 791 791 790 790 789 789 788 788 787 787 787 786 786 785 785 784 784 783 783 782 781 780 779 778 777 776 775
775 776 776 777 778 780 781 782 784 785 786 787 787 787 787 787 786 786 786 786 786 787 787 787 788 788 789 790 790 791 791 791 791 792 792 792 792 792 793 793 793 793 792 792 792 791 791 791 791 791 791 791 791 791 791 791 791 791 791 790 789 789 789 788 788 787 787 787 787 786 786 785 785 784 783 783 782 782 781 780 779 778 777 776 775 773
776 777 777 778 778 780 781 782 784 785 787 787 787 787 787 787 786 786 786 786 786 786 786 786 787 788 789 789 790 790 791 791 791 791 792 792 792 792 793 793 793 792 792 791 791 790 790 790 790 790 790 790 790 790 791 790 790 790 789 789 788 788 788 787 787 787 787 786 786 785 785 784 784 783 783 782 781 781 780 779 778 777 776 774 773 772
777 777 778 778 779 780 781 782 784 785 787 787 787 787 787 787 786 785 785 785 785 785 785 785 786 787 788 789 789 790 790 791 791 791 791 792 792 792 792 792 792 792 791 790 789 789 789 789 789 789 789 790 790 790 790 789 789 788 788 787 787 787 787 787 786 786 786 785 785 784 784 783 783 782 782 781 780 779 778 777 777 775 774 773 772 770
778 778 778 779 779 779 780 782 783 785 786 787 787 787 787 786 785 785 784 784 784 785 785 785 786 786 787 788 789 790 790 791 791 791 791 792 792 792 792 792 792 792 791 789 788 788 788 788 788 789 789 789 789 789 789 788 788 787 787 787 787 786 786 786 786 785 785 784 784 783 783 782 782 781 781 780 779 778 777 776 775 774 773 772 770 769
777 778 778 778 779 779 780 781 783 785 786 787 787 787 786 786 785 784 784 784 784 784 785 785 785 786 787 788 789 790 790 790 791 791 791 792 792 792 792 792 792 792 791 790 789 788 788 788 788 788 788 788 788 788 787 787 787 786 786 786 786 786 785 785 785 784 783 783 782 782 782 781 781 780 779 779 778 777 776 775 774 773 772 770 769 768
777 778 778 778 779 780 781 782 783 785 786 787 787 786 785 785 784 784 784 784 784 785 785 785 785 786 787 787 789 790 790 790 791 791 791 791 792 792 792 792 792 792 791 790 790 790 789 787 787 787 787 787 787 787 786 786 785 785 785 785 785 785 784 784 783 783 782 782 781 781 781 780 779 779 778 777 777 776 775 774 773 772 770 769 768 767
778 778 779 779 780 781 782 783 784 785 786 786 786 785 785 784 784 784 784 784 785 785 785 785 786 786 787 787 788 789 790 790 790 791 791 791 791 792 792 792 792 791 791 791 791 791 791 788 787 786 786 786 786 786 785 785 785 785 785 784 784 784 783 783 782 782 781 781 780 780 779 779 778 777 777 776 775 775 774 773 772 771 769 768 767 765
779 779 780 781 782 782 783 784 785 785 785 785 785 785 784 784 784 784 784 784 785 785 785 785 786 786 787 787 788 788 789 790 790 791 791 791 791 791 791 791 791 791 791 791 791 792 791 790 788 786 785 785 785 785 784 784 784 784 784 784 783 782 782 782 781 781 780 780 779 778 778 777 777 776 776 775 774 773 772 772 771 770 769 767 766 764
780 781 781 782 782 783 784 784 784 785 785 785 784 784 784 784 784 784 785 785 785 785 785 786 786 786 787 787 788 788 789 790 790 790 790 790 790 791 791 791 791 791 791 791 791 791 791 790 789 787 785 783 783 784 784 784 784 784 783 783 782 782 781 781 780 779 779 778 778 777 777 776 775 775 774 773 773 772 771 770 770 769 768 767 765 763
781 782 782 783 783 784 784 784 784 784 784 784 784 784 784 784 785 785 785 785 785 785 786 786 786 786 787 787 787 788 789 789 790 790 790 790 790 790 791 791 791 791 791 791 791 791 790 790 789 788 786 784 782 782 783 783 783 783 783 782 782 781 780 780 779 778 778 777 777 776 775 775 774 773 772 772 771 771 770 769 768 767 767 766 765 763
782 782 783 783 784 784 784 784 784 784 784 784 784 784 784 785 785 785 785 785 785 786 786 786 786 786 787 787 787 788 788 789 789 789 789 789 790 790 790 791 791 791 791 791 791 791 791 790 789 788 787 786 783 782 782 782 782 782 782 781 781 780 779 779 778 778 777 776 775 775 774 773 772 772 771 771 770 769 768 767 767 766 765 764 763 762
782 783 783 784 784 784 784 785 785 785 785 785 785 785 785 785 785 785 785 785 785 786 786 786 786 786 786 787 787 787 788 788 788 789 789 789 789 790 790 791 791 791 791 791 791 791 791 790 789 788 787 786 785 783 781 781 781 781 780 780 779 779 778 778 778 777 777 776 775 774 773 772 772 771 770 769 768 767 767 766 765 764 763 762 762 761
782 783 783 784 784 784 784 785 785 785 785 785 785 785 785 785 785 785 785 785 785 785 786 786 786 786 786 786 787 787 787 787 788 788 789 789 789 790 790 790 790 791 791 791 791 791 791 790 789 788 787 786 785 784 783 782 781 780 779 778 778 778 777 777 777 776 776 775 774 773 772 771 771 770 769 767 767 766 765 764 763 762 761 760 759 758
782 783 783 784 784 784 784 785 785 785 785 785 785 785 785 785 785 785 785 785 785 785 785 785 785 786 786 786 786 787 787 787 788 788 788 789 789 789 789 790 790 790 790 791 791 791 791 791 790 789 787 786 784 783 782 782 781 780 778 777 776 776 776 776 776 775 775 774 773 772 771 770 769 768 767 766 765 764 763 762 761 760 759 758 757 755
782 782 783 783 784 784 784 784 784 785 785 785 785 785 785 785 785 785 785 785 785 785 785 785 785 785 785 786 786 787 787 787 788 788 788 788 789 789 789 789 789 789 790 790 790 791 791 790 790 789 788 787 785 783 782 782 781 780 779 777 776 775 774 774 774 774 774 773 772 771 770 769 768 767 766 765 763 762 762 760 759 758 757 757 755 754
782 782 783 783 784 784 784 784 784 785 785 785 785 785 785 785 785 785 785 785 785 785 785 785 785 785 785 786 786 786 787 787 787 788 788 788 788 788 789 789 789 789 789 790 790 790 790 790 789 788 788 787 785 784 782 781 781 780 780 779 777 775 774 773 773 773 773 772 771 770 769 768 766 765 764 763 762 761 761 760 758 757 756 756 755 754
782 782 783 783 784 784 784 784 784 785 785 785 785 785 785 785 784 784 784 784 784 784 784 785 785 785 785 786 786 786 786 787 787 787 787 788 788 788 788 788 789 789 789 789 789 789 789 789 788 788 787 786 785 783 782 780 780 780 780 779 777 775 773 772 772 772 772 771 770 769 768 767 765 764 762 761 760 759 759 758 757 757 756 755 754 753
782 782 783 783 784 784 784 784 784 784 785 784 784 784 784 784 784 784 784 784 784 784 784 785 785 785 785 785 786 786 786 787 787 787 787 787 788 788 788 788 788 789 789 789 788 788 788 788 787 787 786 786 785 783 782 780 779 779 779 778 777 776 774 771 770 770 770 770 769 768 767 766 764 763 761 760 759 758 757 757 756 755 755 753 752 751
782 783 783 783 784 784 784 784 784 784 784 784 784 784 784 784 783 783 783 783 784 784 784 785 785 785 785 785 786 786 786 786 787 787 787 787 787 788 788 788 788 788 788 788 788 787 787 787 786 786 785 785 784 783 781 780 779 778 777 777 777 776 774 772 770 769 769 768 767 767 766 765 763 762 760 758 757 756 756 755 754 753 753 752 751 750
782 783 783 783 783 784 784 784 783 783 783 783 783 783 783 783 783 783 783 783 784 784 784 785 785 785 785 786 786 786 786 786 786 787 787 787 787 788 788 788 788 788 788 787 787 787 787 786 785 784 784 784 783 782 781 779 778 777 776 776 775 774 773 772 771 769 768 767 766 766 765 764 762 761 759 757 756 755 754 753 752 752 751 750 749 748
782 783 783 783 783 783 783 783 783 783 782 782 782 782 783 783 783 783 783 783 784 784 784 785 785 785 786 786 786 786 786 786 786 787 787 787 787 787 787 787 787 787 787 787 787 786 786 785 784 783 782 782 781 780 779 779 778 777 775 774 773 772 771 770 770 769 768 767 766 765 764 763 762 761 759 757 755 753 752 752 751 751 750 749 748 747
782 782 782 782 782 782 782 782 782 782 782 782 782 782 782 783 783 783 783 784 784 784 785 785 785 785 786 786 786 786 786 787 787 787 787 787 787 787 787 787 787 787 787 786 785 785 784 784 783 783 782 781 779 778 777 777 777 776 774 773 772 771 770 769 768 768 767 767 765 764 763 762 761 760 758 757 755 753 751 750 750 750 749 748 747 745
782 782 782 782 782 782 782 782 781 782 782 782 782 782 782 783 783 783 783 784 784 784 785 785 785 785 786 786 786 786 787 787 787 787 787 787 787 787 787 786 786 786 785 784 784 783 782 782 782 782 781 780 779 777 776 776 775 775 773 772 772 770 769 768 767 767 767 766 765 764 763 762 761 760 758 756 754 752 750 749 748 748 747 747 746 744
781 781 781 781 781 781 781 781 781 781 781 782 782 782 782 783 783 783 783 784 784 784 785 785 785 785 786 786 786 786 786 787 787 787 787 787 786 786 786 785 785 784 784 783 782 782 781 780 780 780 779 779 778 776 775 774 774 773 772 772 771 770 769 767 767 766 765 765 764 763 762 762 761 760 758 757 754 752 750 748 747 746 746 745 744 743
780 780 780 780 780 780 780 780 781 781 781 781 782 782 782 783 783 783 783 784 784 784 785 785 785 785 786 786 786 786 786 786 786 786 786 786 786 785 785 784 784 783 782 782 781 781 780 779 778 778 778 777 777 776 775 773 773 772 772 771 770 769 768 767 766 765 765 764 763 762 761 761 760 759 758 756 754 751 749 747 745 744 744 743 743 742
779 780 780 780 780 780 780 780 780 781 781 782 782 782 782 783 783 783 783 784 784 784 785 785 785 785 785 786 786 786 786 786 786 786 785 785 785 785 784 784 783 783 782 781 781 780 779 778 777 777 776 776 776 776 775 773 772 771 770 770 769 768 768 767 766 765 764 763 762 761 760 759 758 757 757 755 753 751 748 746 744 743 742 742 741 740
Wind_Speed
22 23 23 24 25 24 23 24 25 25 25 24 24 24 24 24 23 23 22 21 19 18 17 16 14 13 12 11 10 8 8 7 7 7 7 8 8 9 9 9 9 10 10 10 11 11 11 11 11 11 11 11 11 11 12 12 12 12 12 12 12 12 12 13 13 13 14 14 15 15 16 16 17 17 18 18 18 18 17 17 17 17 17 17 17 18
21 22 22 23 23 23 21 21 22 23 23 23 23 23 23 22 22 21 20 18 17 16 14 13 12 11 10 9 8 8 7 7 7 7 8 8 9 9 9 9 9 9 10 10 10 10 10 10 10 10 11 11 11 12 12 12 12 12 12 13 13 13 13 13 14 14 14 15 15 16 17 17 18 18 18 18 17 17 16 16 16 16 17 17 17 18
21 20 20 20 21 20 19 19 19 19 21 22 22 22 21 20 19 18 17 16 15 14 13 12 11 10 9 8 8 7 7 7 7 8 8 8 8 8 8 8 9 9 9 9 9 9 9 9 10 10 10 11 11 12 12 12 12 13 13 13 13 14 14 14 15 15 15 16 16 17 18 18 19 18 18 17 17 16 16 16 16 16 16 17 17 18
19 19 19 19 19 18 18 18 17 17 18 20 20 20 19 18 17 16 15 14 13 12 11 11 10 9 9 8 8 7 7 7 7 7 7 7 7 7 7 7 7 7 7 7 8 8 8 9 9 10 10 11 11 12 12 12 12 13 13 13 14 14 15 15 15 16 16 17 17 18 18 19 18 17 17 16 16 16 16 16 16 16 16 17 17 18
17 17 18 19 18 17 17 17 17 17 17 17 17 17 16 16 15 15 14 13 12 11 10 10 9 9 8 8 7 7 7 6 6 6 6 6 6 6 6 6 6 6 6 7 7 8 8 9 9 10 10 10 11 11 12 12 12 13 13 13 14 14 15 15 16 16 17 18 18 18 18 18 17 16 16 16 15 15 15 16 16 16 16 17 17 17
16 16 18 18 18 17 16 16 17 17 17 16 16 15 15 14 14 13 12 11 10 10 9 9 9 8 8 7 7 6 5 5 5 5 5 5 5 5 5 5 5 5 6 6 7 7 8 8 9 9 9 10 10 11 11 12 12 12 13 13 14 14 15 16 16 17 17 17 17 17 17 16 16 15 15 15 15 15 15 15 15 15 16 16 17 17
15 16 18 18 18 17 17 16 16 17 17 17 16 15 14 13 12 12 11 10 10 9 9 8 8 7 6 6 5 5 4 4 4 4 4 4 4 4 4 4 5 5 5 6 6 7 7 7 8 8 9 9 10 10 10 11 12 12 13 13 14 15 15 16 16 16 16 16 16 16 15 15 14 14 14 15 15 15 15 15 15 15 16 16 17 17
16 17 18 18 18 17 16 16 16 16 16 16 16 15 14 13 12 11 11 10 9 8 7 7 6 5 5 4 4 3 3 3 3 3 3 3 3 4 4 4 4 4 5 5 5 6 6 7 7 8 8 8 9 9 10 10 11 12 12 13 14 14 15 15 15 15 15 14 14 14 14 14 13 14 14 15 15 15 15 15 15 15 16 16 17 18
17 17 17 17 17 17 15 15 15 14 14 14 15 15 15 13 12 11 9 8 7 6 6 5 5 4 3 3 3 3 2 2 1 2 2 2 3 3 3 4 4 4 4 4 5 5 5 6 6 6 7 7 8 8 9 10 10 11 12 12 12 13 13 12 12 12 13 13 13 13 13 13 13 14 14 15 15 15 15 15 15 16 16 16 17 18
17 16 15 15 16 15 14 14 14 14 12 12 12 13 13 13 12 10 9 8 7 6 6 5 5 5 3 3 2 2 1 1 1 1 2 2 2 3 3 3 3 2 3 3 4 4 5 5 5 5 6 6 7 8 8 9 10 10 10 11 11 10 10 10 11 11 11 12 12 12 13 13 14 14 15 15 15 15 15 16 16 16 17 17 17 18
15 15 14 13 13 13 13 13 14 14 13 12 12 11 11 11 11 11 10 9 9 8 8 7 6 5 5 4 3 2 1 1 1 1 2 2 2 2 2 2 2 2 2 3 3 4 4 4 5 5 6 6 7 8 8 9 9 10 10 9 9 9 9 10 10 11 11 12 12 12 13 13 14 14 15 15 15 16 16 16 17 17 17 17 18 18
14 14 13 13 12 12 12 13 14 15 14 13 11 10 10 10 10 10 11 11 11 11 10 9 8 7 6 6 5 3 2 1 2 2 2 2 2 2 1 2 2 2 3 3 4 4 4 4 4 5 6 7 8 8 9 9 10 10 10 9 9 9 9 10 10 11 11 12 12 12 13 14 14 14 15 15 15 16 16 17 17 17 17 18 18 19
14 14 13 13 12 12 12 13 14 14 14 13 11 10 11 12 11 11 10 12 12 12 11 10 9 8 7 6 5 4 2 2 2 2 1 1 1 1 1 2 3 3 4 4 5 4 4 4 5 5 7 7 8 8 9 9 10 10 10 9 9 9 9 10 11 11 12 12 12 13 13 14 14 15 15 15 16 16 17 17 17 18 18 18 19 19
15 14 13 12 11 11 12 13 13 13 13 13 13 14 15 16 15 13 12 13 12 11 10 10 9 9 8 6 4 3 3 3 2 1 0 1 1 1 1 2 3 3 4 5 5 5 5 5 5 6 7 8 8 8 9 9 10 10 9 8 8 9 10 11 11 12 12 12 13 13 14 14 15 15 15 16 16 17 17 17 18 18 19 19 19 20
15 14 13 11 10 11 11 12 12 12 12 12 13 14 15 16 16 15 14 15 14 12 10 10 9 8 8 6 5 3 3 3 2 1 1 1 1 1 2 3 3 3 4 5 5 6 5 5 6 6 7 8 8 9 9 10 9 9 8 8 8 9 10 11 12 12 13 13 13 13 14 15 15 15 16 16 17 17 17 18 18 19 19 19 20 20
15 14 12 11 11 11 11 12 12 11 12 12 12 13 15 16 17 16 15 15 14 13 12 11 9 7 7 6 6 4 4 3 3 2 2 2 1 1 1 2 3 3 4 5 6 6 6 6 6 7 7 8 8 9 9 9 9 8 7 8 9 10 10 11 12 12 13 13 13 14 14 15 15 16 16 16 17 17 18 18 18 19 19 19 20 20
13 12 12 11 11 11 12 12 12 13 13 13 13 14 15 16 17 16 15 15 14 13 12 11 8 5 4 6 6 6 4 3 3 3 4 3 2 1 1 2 3 4 5 5 6 6 6 6 6 7 7 8 8 9 9 9 8 8 8 9 10 10 11 12 12 13 13 13 14 14 15 15 15 16 16 16 17 17 17 18 18 18 19 19 20 20
12 11 11 11 11 11 13 13 13 14 15 15 15 15 15 15 16 15 15 14 14 13 12 11 8 5 4 4 5 6 4 3 3 4 4 3 2 2 0 1 3 4 5 6 6 6 6 6 6 7 8 8 8 8 9 8 8 8 9 10 10 11 12 12 13 13 13 14 14 14 15 15 15 16 16 16 16 17 17 17 18 18 18 19 19 20
12 11 12 12 12 13 14 14 15 16 16 17 17 16 16 15 15 15 15 15 13 12 11 10 8 6 6 6 6 6 4 3 4 4 4 3 3 3 1 1 3 5 6 7 7 6 6 6 7 8 8 9 9 8 8 8 8 9 9 10 11 12 12 13 13 13 14 14 14 14 15 15 15 16 16 16 16 16 17 17 17 18 18 19 19 19
13 12 12 14 14 14 14 14 15 17 18 18 18 17 17 16 16 16 15 14 13 12 11 10 8 7 8 8 7 5 3 3 3 3 3 4 5 4 2 1 3 5 6 7 6 6 5 6 7 8 9 9 9 8 8 8 9 9 10 11 11 12 12 13 13 14 14 14 14 15 15 15 15 15 16 16 16 16 16 17 17 17 18 18 19 19
14 13 13 15 16 15 13 13 15 16 17 18 18 18 18 17 16 16 15 15 14 13 12 10 9 9 8 8 6 5 3 2 2 2 3 5 6 5 3 1 3 5 7 7 6 5 6 7 8 9 9 9 8 8 7 8 9 9 10 11 11 12 13 13 14 14 14 15 15 15 15 15 15 15 15 16 16 16 16 17 17 17 18 18 18 19
16 14 14 14 15 15 14 14 14 14 15 16 17 18 18 18 17 16 15 15 14 13 12 11 10 10 9 7 6 4 2 1 2 3 3 4 6 5 3 1 4 6 7 7 6 6 7 8 9 9 8 7 7 6 6 7 8 9 10 11 11 12 13 14 14 14 15 15 15 15 15 15 15 15 15 15 16 16 16 17 17 17 17 18 18 18
16 16 15 15 15 15 15 15 14 14 14 14 15 16 16 16 16 16 16 15 14 14 13 12 11 10 8 7 5 3 1 1 2 3 3 3 4 3 1 2 4 6 7 7 7 8 9 9 9 7 5 4 4 4 4 5 7 8 9 11 12 13 13 14 14 14 14 15 15 15 15 15 15 15 15 16 16 16 16 17 17 17 17 18 18 18
16 17 16 16 15 15 16 16 15 15 15 15 15 15 14 15 15 15 14 14 14 13 12 11 10 8 7 5 4 2 1 2 3 3 3 3 2 1 1 3 5 7 8 8 9 10 10 8 5 3 2 1 1 2 3 5 7 8 9 11 12 13 13 14 14 14 14 14 14 14 15 15 15 15 16 16 16 16 17 17 17 17 17 18 18 18
15 16 16 15 15 15 15 15 15 15 15 15 15 15 15 14 14 13 12 12 12 11 11 10 9 8 7 5 4 2 0 2 3 3 4 3 3 3 3 3 6 8 9 10 9 9 8 4 1 2 2 1 2 3 4 5 7 8 10 11 12 13 13 13 13 13 14 14 14 14 15 15 15 16 16 16 16 17 17 17 17 17 17 18 18 18
14 14 14 14 13 13 13 14 14 14 14 14 14 13 13 13 12 12 11 11 11 11 12 11 9 8 7 5 5 3 1 1 2 3 3 4 4 4 4 4 6 9 11 12 10 7 5 1 3 4 3 2 3 3 4 6 8 10 11 11 11 12 12 12 13 13 13 14 14 14 15 15 16 16 16 16 16 17 17 17 17 17 17 18 18 18
14 14 14 14 13 13 12 12 12 11 11 11 11 11 11 11 11 12 12 12 12 12 12 9 7 6 6 5 5 4 3 2 2 3 3 4 4 4 4 5 7 10 13 13 9 5 2 2 3 3 3 2 2 3 5 8 10 11 10 10 10 11 11 12 12 13 13 14 14 15 15 15 15 15 16 16 16 16 16 17 17 17 17 17 18 19
15 15 14 14 14 13 12 12 11 10 10 10 10 9 9 9 11 13 13 13 12 12 11 9 7 5 4 4 5 4 3 3 3 3 4 4 4 3 4 5 8 11 14 13 9 3 2 3 3 3 2 1 2 5 8 9 10 9 9 9 10 10 11 12 12 13 14 14 15 15 15 15 15 15 15 16 16 16 16 16 17 17 17 17 18 20
16 16 15 15 14 13 13 12 11 10 10 10 10 10 9 9 9 11 11 12 11 11 10 9 8 6 5 5 5 5 4 4 3 4 4 4 3 3 4 6 8 11 13 13 8 4 4 4 3 2 0 2 5 7 10 9 9 8 9 9 10 10 11 12 13 14 14 14 14 14 14 14 14 15 15 15 15 16 16 16 16 17 17 18 19 20
16 15 15 14 13 13 12 12 11 10 10 10 10 11 10 9 9 9 10 10 10 10 9 9 8 7 6 6 4 3 3 4 4 4 4 3 2 2 4 5 7 10 12 11 7 4 3 2 3 3 2 4 8 11 11 10 9 9 9 10 10 11 12 14 15 15 15 14 14 13 13 14 14 14 15 15 15 15 16 16 16 16 17 18 20 21
14 14 13 12 11 11 11 10 10 10 9 9 9 9 9 9 8 9 9 9 9 9 9 9 8 8 7 5 3 1 2 4 3 3 3 2 2 2 4 5 7 8 9 9 6 4 3 3 1 3 4 9 13 14 13 11 10 9 10 10 12 13 15 15 16 15 15 14 14 13 13 13 14 14 14 15 15 15 15 15 16 16 17 19 20 21
12 11 11 10 9 8 8 8 8 8 7 7 7 7 7 7 8 8 9 9 9 9 9 8 8 8 7 5 3 3 3 4 2 1 3 2 2 3 4 5 6 6 7 7 6 3 2 4 5 6 11 15 16 16 13 11 10 9 10 12 14 15 16 16 16 15 15 15 14 14 14 14 14 14 14 15 15 15 15 15 15 16 17 19 20 22
10 9 9 8 7 6 6 6 6 6 6 6 6 6 6 6 7 8 9 9 9 9 9 8 8 7 6 5 4 4 5 4 2 1 2 2 2 2 4 4 5 5 5 5 5 4 3 5 8 13 17 18 17 16 14 12 10 10 11 14 16 18 18 17 16 16 16 16 15 15 15 14 14 15 15 15 15 15 15 15 15 16 17 18 20 21
9 9 8 8 7 6 6 5 5 5 6 6 6 6 7 7 7 8 8 8 8 8 9 8 8 7 6 5 4 4 5 4 2 2 3 3 3 3 4 4 4 4 5 5 5 5 6 8 11 14 16 18 18 16 14 12 11 11 14 16 18 19 19 18 17 17 17 16 16 16 15 15 15 16 16 16 16 15 15 15 15 16 16 17 19 21
10 9 8 7 7 7 6 6 6 5 6 6 6 7 7 7 8 8 8 7 7 7 7 7 7 7 6 6 5 5 5 5 3 2 3 4 4 4 3 3 3 4 4 5 5 6 7 10 12 14 15 17 17 17 14 13 13 14 17 18 19 19 19 18 18 17 17 17 17 17 16 16 16 17 17 17 17 16 16 16 16 16 17 17 18 19
9 8 8 7 6 6 6 6 5 5 5 5 5 6 6 7 7 7 7 6 6 6 6 6 6 6 5 6 6 6 6 5 5 4 5 5 5 4 3 3 3 3 4 5 6 7 8 10 12 13 14 14 15 15 16 16 16 18 19 20 20 20 19 18 17 17 17 17 17 17 17 17 17 18 18 18 18 18 18 18 18 18 18 18 19 19
9 8 7 7 6 6 6 5 5 5 4 4 4 5 5 5 4 4 4 5 5 5 5 5 4 4 4 4 4 4 5 6 6 6 6 6 6 4 3 3 3 4 4 6 7 8 9 10 12 13 13 13 12 14 17 19 19 20 20 20 20 20 19 18 17 17 17 17 17 17 17 18 18 19 19 19 20 20 20 20 21 21 21 21 21 21
9 8 8 7 6 6 6 6 5 5 4 4 4 4 4 4 3 3 2 3 3 4 5 5 5 4 4 3 3 3 3 3 4 4 5 5 5 4 4 4 4 4 4 5 6 8 9 10 10 11 11 13 14 16 18 19 19 20 21 21 20 19 18 18 18 17 17 17 17 17 18 18 19 20 20 21 21 22 22 23 23 23 24 24 24 23
9 8 8 7 7 6 6 6 6 6 5 5 5 5 4 4 4 3 3 2 3 4 5 5 5 5 5 4 4 4 3 3 2 1 1 1 2 3 4 5 5 5 4 5 6 7 9 10 10 10 11 13 16 17 18 18 18 19 21 21 21 19 19 19 19 18 17 17 17 18 19 19 20 21 22 22 22 22 23 24 25 25 26 27 26 25
9 9 8 7 7 7 7 7 7 6 6 6 5 5 5 5 5 4 4 3 4 4 4 5 5 5 5 4 3 3 3 3 2 2 2 2 2 3 4 5 5 6 5 5 6 7 9 11 12 13 13 14 16 17 18 18 18 18 19 19 18 19 21 21 20 19 17 17 17 19 20 21 22 22 22 22 23 23 24 25 26 27 27 26 25 25
9 9 8 7 7 7 7 7 7 6 6 5 5 5 5 5 5 5 4 4 3 3 3 4 4 4 4 4 3 2 2 2 2 2 3 3 4 4 5 6 6 6 6 7 7 8 10 12 13 14 15 16 17 18 18 18 18 17 17 17 18 20 23 22 20 18 17 18 19 20 21 22 22 23 23 24 24 24 24 25 26 26 26 24 23 22
9 8 8 7 7 7 7 7 6 5 5 5 5 5 5 5 5 5 4 4 3 2 2 2 3 4 3 3 2 2 2 3 3 4 4 5 5 6 7 7 7 7 7 8 10 11 11 12 13 14 15 16 16 17 18 19 18 17 16 17 19 21 22 20 19 18 19 20 21 21 22 22 22 23 24 25 26 26 26 25 24 24 23 22 22 22
8 8 8 8 7 7 7 6 6 6 6 6 5 5 4 4 4 4 4 4 3 2 1 1 3 3 4 3 2 2 1 2 3 4 5 5 6 7 7 8 8 8 9 10 12 13 13 13 13 14 15 15 16 17 18 19 19 18 17 17 18 18 17 18 20 21 22 22 22 22 22 22 23 24 25 26 26 26 26 25 23 22 22 22 22 22
8 8 8 7 7 7 6 6 6 6 6 5 5 4 3 3 3 3 3 3 3 2 1 1 2 3 3 4 3 3 2 1 1 2 4 5 6 7 7 8 8 8 9 11 12 13 14 14 14 15 15 15 16 17 18 19 19 18 18 17 17 17 18 20 22 24 24 23 23 22 22 22 23 25 26 26 26 25 25 24 23 23 23 22 22 23
7 7 7 6 6 6 6 6 5 5 5 5 4 3 2 1 1 2 2 3 2 2 0 1 2 2 2 3 4 3 2 1 0 1 2 3 4 6 7 7 8 9 10 11 12 13 14 15 16 16 16 16 16 17 17 18 18 19 18 18 19 20 21 22 23 23 23 23 23 22 22 23 24 24 25 25 25 24 24 23 23 23 23 23 23 23
6 6 6 7 7 6 5 5 5 5 5 4 4 3 2 1 0 1 1 1 1 1 0 1 1 1 1 2 3 4 4 4 3 3 3 3 4 5 6 6 7 8 10 11 13 14 15 16 17 17 18 18 18 18 18 17 17 18 19 20 21 22 23 22 22 21 21 22 22 22 23 23 23 22 22 23 24 24 24 23 22 23 23 23 24 24
4 5 5 6 7 6 6 5 5 4 4 4 3 3 2 1 1 1 1 1 1 1 1 1 1 1 1 2 2 3 4 4 5 5 5 5 6 6 6 7 7 9 10 12 13 14 16 17 17 18 18 18 18 18 18 18 18 19 21 22 23 22 22 21 20 20 20 21 21 22 22 22 22 21 21 22 23 24 24 23 23 22 22 23 23 24
4 4 4 5 6 6 5 5 4 4 4 3 3 3 2 2 1 1 1 1 1 1 2 1 1 1 2 2 3 3 4 5 5 6 6 6 7 7 7 8 8 10 11 12 13 14 15 15 16 16 17 18 18 18 19 20 20 21 22 22 21 20 20 20 20 20 20 20 21 21 21 21 20 20 21 21 22 23 23 24 24 23 23 22 23 24
4 3 3 4 4 4 4 4 4 3 4 4 4 4 3 2 2 2 2 2 2 2 2 1 1 2 3 3 3 4 4 5 6 6 7 7 7 8 8 9 10 11 12 13 13 13 13 14 13 14 14 16 18 20 21 21 21 21 20 19 17 17 18 19 20 20 20 20 20 20 20 20 19 19 20 20 21 22 24 25 25 24 23 22 22 23
3 3 3 3 4 4 3 3 3 4 4 4 4 4 3 3 2 2 2 2 2 2 2 2 3 3 4 4 4 5 5 5 6 7 7 7 7 8 9 10 11 12 13 13 13 12 12 12 12 11 11 11 13 16 18 18 18 17 16 15 16 16 17 19 20 20 20 20 20 20 21 20 20 19 18 18 20 22 23 25 25 25 24 23 24 24
3 3 3 3 3 3 3 3 4 4 4 4 3 3 3 3 2 2 2 2 2 3 3 3 4 4 4 5 5 5 5 6 6 7 7 7 8 8 9 10 11 12 12 12 12 12 11 11 10 10 10 8 7 9 12 14 15 16 16 17 17 17 18 19 20 20 20 20 20 20 20 20 19 18 18 18 19 20 22 23 25 25 25 25 25 26
Wind_Direction
158 163 169 172 170 167 169 175 176 174 172 173 175 178 181 185 187 189 190 191 192 194 196 197 200 202 205 210 214 218 222 226 231 239 248 256 261 266 271 274 277 277 277 277 278 280 282 284 287 288 290 291 291 292 293 294 296 297 298 298 299 300 300 300 300 300 299 299 299 298 297 297 297 298 301 303 306 308 310 312 311 311 310 309 308 307
155 159 164 170 170 167 166 173 178 177 175 176 179 182 184 185 186 187 189 190 192 194 196 198 201 203 206 210 213 217 222 230 238 247 254 260 265 269 272 274 274 275 275 276 278 281 283 285 287 288 290 291 292 294 296 298 299 300 301 302 302 302 302 302 302 302 301 301 300 299 299 300 301 303 306 308 310 311 312 311 310 309 309 309 308 307
151 154 159 167 169 166 163 169 177 181 181 182 184 187 188 188 187 187 188 190 192 195 197 199 201 204 206 210 214 219 227 236 245 252 258 262 266 268 269 270 271 272 274 277 279 282 284 286 287 289 290 292 294 296 298 300 301 303 304 305 305 305 304 304 303 303 302 302 301 301 302 304 305 307 309 309 310 311 311 310 309 308 309 308 307 306
149 151 157 162 165 165 163 167 173 179 184 187 189 192 193 191 190 189 190 191 192 195 199 201 204 206 209 213 218 224 232 240 248 253 257 260 262 264 264 265 267 270 274 278 281 283 285 286 286 288 290 292 295 297 299 301 303 304 305 306 306 306 306 305 304 304 303 303 303 304 305 306 307 309 309 309 310 311 310 309 308 308 309 308 308 307
151 152 156 158 158 159 164 168 172 177 183 187 189 191 193 193 192 192 192 193 194 195 199 203 206 210 213 218 222 227 234 241 246 251 254 256 257 258 260 262 265 271 275 278 281 282 283 284 286 288 291 293 296 298 300 302 304 305 306 306 306 306 306 305 304 304 304 304 304 305 306 307 307 308 309 310 311 310 309 307 307 308 309 309 308 308
151 154 156 156 154 154 161 168 174 178 181 183 185 186 187 190 191 190 190 191 194 196 199 203 209 215 219 223 226 231 235 240 245 248 251 251 252 254 256 261 266 270 274 276 278 280 282 285 288 291 294 297 299 301 303 304 305 305 305 305 306 305 305 305 304 304 304 304 305 306 306 307 308 309 311 312 311 308 306 306 307 309 309 309 309 309
153 156 158 156 156 158 161 167 175 179 178 176 176 178 179 181 183 184 185 188 192 196 201 208 215 220 224 227 228 229 230 232 238 242 244 245 246 249 253 258 263 267 272 276 279 283 288 291 295 297 300 303 305 306 306 306 306 305 305 305 305 305 304 304 304 304 304 304 305 306 307 309 311 313 313 311 308 306 306 307 308 308 309 309 309 310
151 156 160 158 157 159 161 165 172 178 179 175 171 169 171 174 176 178 182 186 191 195 200 208 215 220 220 218 218 215 214 219 228 235 238 241 245 250 255 262 266 272 278 283 289 294 297 299 302 305 307 309 310 310 309 308 307 307 306 306 305 304 303 303 303 303 304 305 307 309 311 314 314 313 311 307 306 306 307 308 308 308 308 309 310 310
148 152 158 160 158 155 155 162 170 176 179 178 174 170 168 169 171 175 178 180 184 188 188 186 184 187 197 201 202 202 207 215 231 243 248 253 260 265 269 274 279 284 288 294 298 301 302 304 307 310 312 313 312 311 310 308 308 307 307 307 306 305 304 304 305 306 308 310 313 314 316 315 313 309 307 306 306 307 308 308 308 308 308 309 310 310
147 149 152 159 162 161 156 158 166 172 172 174 175 174 171 167 165 164 164 164 165 167 165 156 148 149 165 182 195 201 214 228 245 257 260 266 269 273 275 278 279 284 291 298 303 306 307 309 311 314 314 314 313 311 310 309 310 310 311 310 309 308 308 309 311 313 315 316 316 316 314 312 308 307 307 307 308 308 308 308 308 309 309 310 310 309
142 146 147 150 158 164 162 160 162 166 165 166 168 170 172 171 167 161 155 152 151 151 147 141 143 153 168 184 195 207 221 245 264 267 266 261 260 261 266 269 276 289 304 318 321 321 319 318 318 319 318 318 317 316 315 315 316 317 317 317 316 316 316 317 317 317 316 315 314 312 309 308 307 307 308 308 308 308 308 308 309 309 309 309 308 308
141 143 145 147 151 156 160 161 163 165 167 166 167 170 173 171 171 169 160 156 153 149 147 147 154 169 185 201 209 214 222 255 276 281 272 257 247 250 267 286 304 318 331 340 341 339 333 329 328 326 324 323 323 323 322 322 322 323 323 322 321 320 319 318 316 314 312 311 309 307 306 306 307 308 308 308 308 308 308 309 309 308 308 307 306 306
143 145 145 147 150 153 156 159 162 167 172 175 176 178 177 171 168 165 162 159 156 154 154 158 166 179 192 203 211 220 233 259 275 278 268 234 218 238 282 300 315 326 337 345 348 347 343 340 336 332 328 326 326 325 324 323 322 322 321 321 321 320 319 316 313 311 309 307 306 306 306 307 308 308 308 308 308 308 308 308 307 306 306 305 305 304
143 145 146 147 150 155 159 161 165 172 180 185 186 183 178 170 164 160 157 155 157 160 162 167 173 182 191 195 199 211 236 262 278 289 122 153 168 211 273 283 299 320 335 343 350 354 350 344 338 333 329 327 325 323 321 319 318 318 318 319 320 320 318 315 311 310 308 308 307 307 308 308 308 309 309 309 308 308 308 307 306 305 304 304 303 303
147 148 149 151 155 160 165 168 173 180 186 188 187 184 178 171 167 164 158 155 158 164 166 168 174 184 194 193 196 212 239 264 284 324 54 105 150 199 253 274 291 317 335 344 352 356 353 345 335 329 327 324 322 319 316 316 317 318 319 321 322 321 318 314 312 310 310 310 310 310 310 310 310 310 309 309 308 307 307 306 305 304 304 304 303 303
150 151 152 154 158 164 169 173 176 180 181 181 181 179 174 172 171 169 163 160 161 163 163 162 165 179 198 198 200 214 236 264 294 339 21 66 130 186 247 280 299 319 337 346 352 355 352 342 331 324 320 318 316 314 312 313 315 318 321 323 322 320 317 315 313 312 312 312 312 312 311 311 310 310 309 308 307 307 306 305 305 304 304 304 304 304
148 150 151 152 156 162 168 171 172 172 171 171 173 174 172 170 170 170 167 166 165 165 166 165 160 161 189 201 203 208 224 259 302 334 358 42 97 152 226 291 308 324 338 346 350 352 348 337 325 317 314 312 310 308 306 308 311 315 319 320 319 317 315 314 314 313 313 313 312 311 311 311 310 309 309 308 307 306 306 305 305 305 304 304 304 304
146 149 149 149 152 157 162 164 166 166 165 163 164 166 167 167 168 168 168 167 167 169 173 176 173 166 166 182 192 197 210 257 304 326 349 33 87 124 129 314 317 325 335 342 347 348 341 330 318 311 308 308 306 303 301 303 306 310 313 314 314 314 314 314 314 313 313 312 311 311 310 310 309 309 308 307 307 306 306 305 305 305 305 305 304 304
146 150 151 150 151 153 157 160 162 162 161 160 160 161 161 164 167 168 168 168 168 170 173 175 173 166 160 162 174 188 208 254 296 319 352 44 87 115 103 334 319 320 326 334 340 340 332 319 310 305 304 304 302 299 297 297 300 304 307 309 310 312 312 313 312 312 311 311 310 309 309 308 308 308 307 307 307 307 306 306 306 305 305 305 305 305
145 150 152 152 150 150 154 160 165 166 165 166 165 163 162 165 168 168 168 168 168 169 168 164 158 152 153 158 171 192 222 258 292 323 15 68 89 101 92 336 309 308 313 323 331 330 318 306 299 297 298 298 298 296 293 294 296 300 303 306 308 310 310 310 310 310 310 309 309 308 307 307 307 307 307 307 307 306 306 306 306 305 305 305 305 305
142 146 153 156 153 149 152 159 167 173 174 174 172 169 167 167 168 167 167 167 166 165 163 157 152 151 155 159 174 201 235 267 309 356 49 84 94 96 92 329 296 298 304 315 321 318 306 296 292 292 293 294 293 292 289 289 292 297 301 304 306 308 309 309 309 309 309 309 308 307 306 306 306 306 306 306 306 306 306 305 305 305 305 304 305 305
140 141 151 159 158 154 153 159 167 175 181 182 179 174 170 168 166 166 166 165 163 161 158 155 156 161 167 172 188 213 243 293 5 34 61 87 96 98 103 283 289 296 304 312 316 310 299 293 291 290 290 287 283 281 282 286 291 296 301 304 306 307 308 309 309 308 309 308 307 307 307 306 306 306 305 305 305 305 305 304 304 304 304 305 305 306
143 143 149 156 160 159 157 158 162 170 177 182 181 178 175 171 168 165 164 163 162 161 161 162 165 169 175 185 197 206 185 52 38 40 59 74 86 94 116 276 290 300 307 313 313 309 302 297 295 292 284 277 271 273 284 292 298 301 303 304 306 307 307 308 308 308 308 308 307 307 307 306 306 306 305 305 305 304 304 304 304 304 304 305 306 306
148 148 152 157 161 162 162 161 163 167 172 175 176 175 174 173 171 169 168 168 167 167 167 167 163 160 160 164 172 174 95 56 37 29 40 62 68 51 3 315 313 314 313 314 314 312 307 304 298 279 252 248 286 318 315 309 305 303 303 305 305 307 307 308 308 308 308 308 308 307 307 306 306 305 305 305 305 305 304 304 304 304 305 306 306 307
151 151 154 158 162 165 167 166 167 169 173 175 175 175 174 174 173 172 172 172 171 168 164 156 148 140 139 139 149 162 79 35 18 10 23 34 27 18 25 347 329 322 316 318 320 317 312 311 283 148 142 94 26 1 337 314 305 303 304 306 307 308 309 309 309 309 308 308 307 307 306 306 305 305 305 305 305 305 305 305 305 305 305 306 307 307
148 148 150 153 158 162 165 166 168 172 176 179 180 180 180 178 175 171 167 164 163 160 154 144 137 135 138 145 160 177 207 324 340 348 7 17 12 13 28 356 330 320 316 322 327 326 321 8 116 121 106 60 26 359 326 307 303 305 307 309 311 312 312 311 311 310 309 308 307 307 306 306 305 305 305 305 305 305 305 305 305 306 307 307 307 307
136 138 140 143 146 149 152 156 161 167 173 177 180 182 183 182 174 164 156 155 155 152 145 138 136 140 143 151 161 172 201 253 293 319 347 1 6 9 9 346 328 321 320 327 336 346 358 85 100 92 68 45 9 318 303 304 307 312 315 318 318 317 315 314 312 310 309 308 307 307 307 307 307 307 306 306 305 305 305 306 306 307 308 308 308 308
127 129 130 132 134 136 138 142 147 155 161 166 169 172 175 178 169 156 150 151 151 147 142 141 139 136 136 144 149 160 188 222 262 293 328 346 358 3 352 334 326 325 328 332 343 21 87 95 79 66 55 7 290 297 309 316 321 326 330 330 325 320 317 315 313 311 310 309 309 308 308 308 308 308 307 307 307 307 307 308 309 309 309 309 309 309
126 127 128 129 132 134 137 140 143 148 154 160 162 163 165 172 168 159 153 154 151 146 142 142 142 138 133 141 147 156 177 204 240 275 306 331 347 353 338 326 328 333 338 338 345 23 83 99 96 85 238 273 294 313 327 334 338 342 341 337 330 324 318 315 314 312 312 312 312 311 311 310 309 309 309 309 309 309 310 311 311 311 311 310 310 311
131 132 133 135 138 141 143 145 148 151 157 162 165 165 165 169 167 161 156 155 152 148 144 145 146 145 141 138 140 154 178 198 223 261 293 318 341 339 327 329 336 345 350 350 350 358 31 92 141 170 236 296 318 331 340 346 349 348 343 337 329 323 319 317 316 316 316 316 316 315 313 311 310 310 310 310 311 311 312 313 314 313 312 312 312 313
136 137 137 140 143 145 147 149 152 156 161 167 170 170 169 169 166 161 158 156 155 153 152 152 154 153 150 140 130 142 182 186 207 263 294 314 331 332 329 335 345 355 1 3 4 356 333 318 214 198 277 313 326 336 346 351 352 347 339 330 323 319 319 320 321 322 322 322 321 319 317 314 313 312 311 312 312 312 313 314 315 315 315 315 314 314
137 138 139 140 143 146 149 152 155 159 163 166 169 171 170 168 165 162 161 159 158 158 156 157 159 159 159 153 146 142 146 155 176 279 303 314 323 327 331 338 347 359 8 8 3 354 309 307 298 296 307 316 324 334 344 350 350 343 332 323 318 319 323 326 327 327 327 326 325 324 322 320 318 317 314 313 313 313 313 315 316 317 316 316 316 315
134 135 136 138 139 141 144 146 148 150 152 154 156 160 162 162 161 161 162 163 162 161 159 158 158 160 163 159 149 137 130 131 138 254 288 301 315 327 328 335 345 353 359 356 346 328 296 292 300 307 312 316 322 329 337 344 344 334 324 320 320 323 328 332 332 331 329 328 328 328 327 326 325 323 319 317 315 314 314 315 317 318 318 317 316 315
125 126 127 129 130 130 130 130 130 131 132 135 139 143 147 151 154 157 159 162 164 165 164 163 161 162 166 168 163 147 132 131 146 229 269 294 312 323 323 330 339 342 340 334 325 312 297 293 299 307 312 315 319 325 331 336 333 325 320 321 324 327 332 334 334 332 331 331 330 330 331 331 330 328 325 322 319 317 316 316 317 317 317 317 316 315
117 117 119 121 122 123 123 122 120 119 120 122 128 133 138 142 146 149 151 154 157 162 166 169 170 172 175 176 176 168 153 150 170 224 263 290 307 315 316 321 329 330 322 318 317 313 305 301 303 307 310 314 316 320 325 328 325 321 321 324 328 330 333 334 334 332 332 332 331 332 333 332 331 329 327 325 322 319 317 316 316 316 316 316 315 314
119 119 119 121 122 124 123 122 122 123 122 123 126 130 134 136 139 140 141 143 145 149 155 161 168 174 181 186 189 187 181 182 196 225 254 275 291 303 307 308 312 313 307 307 308 310 308 306 306 308 309 310 312 316 320 322 321 321 323 326 328 330 332 333 334 333 332 331 331 332 333 333 331 329 327 325 322 319 317 315 315 315 315 315 314 312
128 129 130 131 133 133 133 132 133 135 136 135 133 133 134 134 134 134 131 129 128 128 132 137 143 150 158 166 178 190 195 201 212 230 248 261 272 281 282 281 286 290 290 295 300 304 306 308 309 310 309 306 306 309 314 317 319 320 321 324 325 327 329 332 334 334 332 331 330 331 332 331 329 327 325 323 321 319 317 316 315 316 316 316 315 313
136 137 138 141 143 144 146 146 148 152 155 158 156 153 151 152 155 156 143 123 112 109 108 107 108 107 109 108 112 127 153 183 206 225 241 253 263 270 270 271 275 281 283 288 294 299 301 304 308 310 309 306 304 304 308 313 316 318 319 321 322 323 326 330 333 333 332 331 330 330 329 329 327 325 323 322 321 320 319 318 318 318 319 319 318 317
140 140 142 144 148 151 155 157 161 167 174 178 179 178 176 176 178 177 167 134 108 97 91 85 78 73 71 73 80 88 97 104 111 129 212 260 276 286 286 283 287 295 301 298 295 293 291 291 294 299 303 305 305 306 307 310 313 315 318 320 321 322 323 327 329 330 331 330 329 328 327 326 325 324 323 322 322 321 320 320 320 320 321 321 321 320
143 144 145 148 152 156 161 167 175 183 189 193 194 192 187 184 178 170 155 132 110 93 80 68 57 50 48 49 53 62 75 81 74 57 35 10 351 336 324 314 312 314 315 306 297 290 285 283 283 286 291 295 299 302 305 307 309 313 318 319 318 317 318 322 325 327 328 328 327 326 325 325 324 323 323 322 322 321 321 320 320 320 321 321 321 320
148 150 152 157 163 168 175 183 191 196 197 196 190 184 176 169 162 155 145 127 107 84 62 43 31 27 25 21 17 13 11 10 4 359 353 347 341 335 330 325 322 320 314 304 298 294 287 283 281 282 285 289 293 297 299 301 305 310 313 312 310 309 312 315 319 322 325 325 325 325 324 325 324 324 322 321 320 319 319 319 319 319 320 320 319 317
152 156 162 170 177 184 190 195 197 196 193 184 173 163 154 148 144 139 132 118 101 75 42 14 2 356 355 353 356 353 341 335 331 330 330 329 327 324 321 318 314 310 304 299 295 293 289 285 282 281 284 289 293 296 297 299 301 304 305 304 306 308 310 311 315 320 322 322 323 324 325 325 324 323 321 320 318 317 317 317 317 317 317 317 317 316
160 167 176 185 191 194 195 193 190 186 180 171 159 147 138 130 127 128 128 122 114 102 58 344 336 339 346 1 19 30 6 338 325 322 320 320 320 319 317 313 307 300 295 292 289 289 290 287 283 283 286 290 292 293 294 297 299 301 300 301 304 307 308 309 313 317 319 320 322 323 325 325 323 321 319 318 317 317 317 317 317 316 316 316 316 316
176 183 190 194 196 193 189 183 178 173 167 157 148 138 128 115 109 115 125 124 123 121 124 310 316 325 341 359 13 25 39 47 329 316 316 316 314 313 312 309 302 295 294 290 286 287 290 290 288 288 289 291 291 290 291 293 295 297 297 298 299 298 298 302 309 313 316 318 321 323 324 324 322 320 319 318 317 317 317 317 317 316 316 317 317 315
188 191 192 191 186 180 172 169 167 165 160 151 143 136 130 103 80 93 114 116 116 110 80 316 309 323 347 350 351 352 353 5 20 320 312 310 310 309 309 307 304 299 296 293 291 290 290 292 293 294 294 292 289 287 286 288 291 293 294 296 298 297 297 301 306 311 314 317 320 322 323 322 322 322 321 319 318 317 316 316 316 316 317 318 317 315
186 185 183 180 173 166 160 161 163 161 154 144 138 138 147 144 64 78 100 103 96 83 337 290 305 332 348 342 335 335 335 333 332 329 322 315 309 306 304 302 299 296 293 290 288 287 288 289 291 293 294 293 289 285 282 283 286 289 292 295 298 300 301 304 307 311 314 317 319 320 321 322 323 323 321 319 316 315 313 314 314 315 316 316 316 314
173 177 178 176 172 167 163 161 158 152 142 132 131 139 156 170 172 157 134 134 151 185 213 241 277 304 310 308 312 317 318 316 314 315 314 313 309 305 300 296 293 292 291 291 290 289 287 287 287 288 289 288 286 284 283 283 283 285 288 294 297 299 300 303 308 313 316 317 318 319 320 322 323 322 319 316 314 312 311 312 312 313 314 314 314 313
172 182 185 181 173 166 159 154 149 142 134 134 141 151 159 158 164 164 147 161 176 190 199 208 223 254 269 279 289 296 300 298 297 299 301 303 303 303 301 299 298 299 299 299 297 295 293 291 288 286 283 280 279 280 282 284 285 287 290 294 298 299 301 306 311 316 318 318 318 318 319 321 321 320 317 314 312 311 310 310 311 312 312 313 313 312
175 183 187 182 171 161 154 151 148 145 146 153 159 164 166 165 175 182 165 169 177 188 192 200 223 248 264 272 279 283 287 288 290 293 296 299 303 306 307 308 309 310 311 310 307 304 301 297 292 286 281 278 276 276 280 285 290 294 298 301 304 307 310 313 316 318 319 318 317 316 317 317 316 315 313 310 308 307 308 309 310 311 312 313 313 312
183 183 186 182 174 168 165 163 160 158 160 166 169 172 174 181 193 200 196 191 193 201 209 219 235 248 259 267 272 277 280 284 288 291 296 301 305 309 312 316 319 321 320 319 317 315 312 308 302 295 287 282 282 283 286 292 299 306 311 314 316 318 319 318 318 318 318 317 316 315 314 314 313 312 311 307 305 305 306 307 309 310 312 313 313 312
185 185 185 182 181 178 177 173 168 165 164 168 175 183 189 199 212 224 224 219 218 222 226 232 238 247 255 263 267 272 276 281 286 292 298 304 308 312 315 319 322 323 321 320 320 321 319 316 312 309 305 302 296 295 298 305 312 318 321 320 320 321 321 319 317 316 316 315 314 313 313 312 312 311 309 306 305 306 306 307 308 310 312 313 314 314